This is the latest recevied weather packets stored in our database for station/object W5MAI. If no packets are shown the sender has not sent any weather packets the latest 10 day(s).
| Time | Temp. | Humidity | Pressure | Rain* | Wind** | Luminosity | Snow |
|---|---|---|---|---|---|---|---|
| 1778000005 | 23.89° C | 85% | 1010.8 hPa | 0 mm | - | 264 W/m² | - |
| 1777999432 | 23.33° C | 86% | 1010.7 hPa | 0 mm | - | 292 W/m² | - |
| 1777998811 | 23.33° C | 87% | 1010.7 hPa | 0 mm | - | 283 W/m² | - |
| 1777998232 | 22.78° C | 88% | 1010.8 hPa | 0 mm | - | 190 W/m² | - |
| 1777997645 | 22.78° C | 88% | 1010.9 hPa | 0 mm | - | 165 W/m² | - |
| 1777997047 | 22.22° C | 88% | 1010.6 hPa | 0 mm | - | 167 W/m² | - |
| 1777996461 | 22.22° C | 89% | 1010.7 hPa | 0 mm | - | 146 W/m² | - |
| 1777995822 | 22.22° C | 90% | 1010.7 hPa | 0 mm | - | 169 W/m² | - |
| 1777995257 | 21.67° C | 90% | 1010.7 hPa | 0 mm | - | 137 W/m² | - |
| 1777994609 | 21.67° C | 90% | 1010.7 hPa | 0 mm | - | 120 W/m² | - |
| 1777994024 | 21.67° C | 91% | 1010.7 hPa | 0 mm | - | 105 W/m² | - |
| 1777993429 | 21.11° C | 91% | 1010.7 hPa | 0 mm | - | 105 W/m² | - |
| 1777992851 | 21.11° C | 92% | 1010.7 hPa | 0 mm | - | 93 W/m² | - |
| 1777992204 | 21.11° C | 92% | 1010.9 hPa | 0 mm | - | 83 W/m² | - |
| 1777991632 | 21.11° C | 92% | 1010.7 hPa | 0 mm | - | 83 W/m² | - |
| 1777989819 | 20.56° C | 91% | 1010.6 hPa | 0 mm | - | 51 W/m² | - |
| 1777989237 | 20.56° C | 91% | 1010.6 hPa | 0 mm | - | 32 W/m² | - |
| 1777988662 | 20.56° C | 91% | 1010.5 hPa | 0 mm | - | 39 W/m² | - |
| 1777988015 | 20.56° C | 91% | 1010.4 hPa | 0 mm | - | 44 W/m² | - |
| 1777987426 | 20.56° C | 91% | 1010.4 hPa | 0 mm | - | 32 W/m² | - |
| 1777986849 | 20.56° C | 90% | 1010.3 hPa | 0 mm | - | 33 W/m² | - |
| 1777986224 | 21.11° C | 90% | 1010.1 hPa | 0 mm | - | 23 W/m² | - |
| 1777985657 | 21.11° C | 90% | 1010.1 hPa | 0 mm | - | 16 W/m² | - |
| 1777985017 | 21.11° C | 90% | 1010.1 hPa | 0 mm | - | 14 W/m² | - |
| 1777984451 | 21.11° C | 90% | 1010 hPa | 0 mm | - | 11 W/m² | - |
* Rain latest hour (hover to see other rain measurements)
** Current wind speed in m/s (hover to see current wind gust speed)